#timestamp,LO_Frequency,Hit,StdDev 
1558630815.6,286047006.0,N
1558630835.5,286047007.0,N
1558630855.3,286047006.3,N
1558630875.1,286047006.4,N
1558630895.9,286047003.4,N
1558630915.7,286047001.9,N
1558630935.6,286047002.0,N
1558630955.4,286047003.5,N
1558630975.2,286047002.0,N
1558630995.1,286047003.7,N
1558630996.0,286047003.7,N
1558631015.8,286047003.2,N
1558631035.6,286047005.6,N
1558631055.5,286047007.5,N
1558631075.3,286047006.6,N
1558631095.2,286047007.5,N
1558631115.9,286047006.3,N
1558631135.7,286047006.2,N
1558631155.6,286047006.8,Y
1558631175.4,286047000.7,P
1558631195.3,286046999.2,N
1558631215.1,286046997.8,N
1558631216.0,286046997.8,N
1558631235.8,286046997.6,N
1558631255.7,286046999.1,N
1558631275.5,286046998.5,N
1558631295.3,286046998.3,N
1558631315.2,286047001.0,N
1558631335.0,286046994.9,N
1558631335.9,286046994.9,N
1558631355.8,286046992.8,N
1558631375.6,286046990.8,Y
1558631395.4,286046993.1,P
1558631415.3,286046991.9,P
1558631435.1,286046994.3,N
1558631455.9,286046996.2,N
1558631475.7,286046995.8,N
1558631495.5,286046997.1,N
1558631515.4,286047000.0,N
1558631535.2,286047002.2,N
1558631555.1,286047002.1,N
1558631556.0,286047002.1,N
1558631575.8,286047004.1,N
1558631595.6,286047003.1,N
1558631615.5,286047001.7,N
1558631635.3,286047001.3,N
1558631655.1,286047003.9,N
1558631675.9,286047004.4,N
1558631695.7,286047002.1,N
1558631715.6,286047004.0,N
1558631735.4,286047005.6,N
1558631755.2,286047005.1,N
1558631775.1,286047005.1,N
1558631776.0,286047005.1,N
1558631795.8,286047003.8,N
1558631815.7,286047003.3,N
1558631835.5,286047003.1,N
1558631855.3,286047003.4,N
1558631875.2,286047005.2,N
1558631895.0,286047004.8,N
1558631895.9,286047004.8,N
1558631915.7,286047004.8,N
1558631935.6,286047005.3,N
1558631955.4,286047005.2,N
1558631975.3,286047004.7,N
1558631995.1,286047006.4,N
1558631996.0,286047006.4,N
1558632015.8,286047005.7,N
1558632035.7,286047004.5,N
1558632055.5,286047007.8,Y
1558632075.4,286047005.2,P
1558632095.2,286047003.3,P
1558632115.0,286047005.3,P
1558632115.9,286047005.3,Y
1558632135.8,286046998.1,P
1558632155.6,286047000.8,N
1558632175.4,286047000.8,N
1558632195.3,286046999.9,N
1558632215.1,286046998.3,N
1558632235.9,286046999.6,N
1558632255.7,286046996.7,N
1558632275.5,286046995.1,N
1558632295.4,286046996.6,N
1558632315.2,286046996.9,N
1558632335.1,286046997.3,N
1558632336.0,286046997.3,N
1558632355.8,286046996.9,N
1558632375.6,286046999.3,N
1558632395.5,286047001.2,N
1558632415.3,286046999.8,N
1558632435.1,286047002.8,N
1558632455.9,286046998.3,N
1558632475.7,286046998.1,N
1558632495.6,286046998.1,N
1558632515.4,286047000.7,N
1558632535.2,286047001.0,N
1558632555.1,286046998.6,N
1558632556.0,286046998.6,N
1558632575.8,286046998.1,N
1558632595.6,286046995.3,N
1558632615.5,286046993.3,Y
1558632635.3,286046996.9,P
1558632655.2,286047000.6,N
1558632675.0,286047002.8,N
1558632675.9,286047002.8,N
1558632695.7,286047001.4,N
1558632715.6,286047003.4,N
1558632735.4,286047003.7,N
1558632755.3,286047001.3,N
1558632775.1,286047003.7,N
1558632776.0,286047003.7,N
1558632795.8,286047003.7,N
1558632815.7,286047004.3,N
1558632835.5,286047001.3,N
1558632855.3,286047004.0,N
1558632875.2,286047003.3,N
1558632895.0,286047005.9,N
1558632895.9,286047005.9,N
1558632915.8,286047003.4,N
1558632935.6,286047003.0,N
1558632955.4,286047006.0,N
1558632975.3,286047005.2,N
1558632995.1,286047004.8,N
1558633015.9,286047006.5,N
1558633035.7,286047004.6,N
1558633055.5,286047003.6,N
1558633075.4,286047003.2,N
1558633095.2,286047005.4,N
1558633115.0,286047005.2,N
1558633115.9,286047005.2,N
1558633135.8,286047006.8,Y
1558633155.6,286047004.1,P
1558633175.5,286047003.1,P
1558633195.3,286047005.7,P
1558633215.1,286047004.6,Y
1558633235.9,286047002.4,P
1558633255.7,286047000.0,N
1558633275.6,286046999.8,N
1558633295.4,286047001.9,N
1558633315.2,286047002.0,N
1558633335.1,286047001.7,N
1558633336.0,286047001.7,N
1558633355.8,286047004.4,Y
1558633375.7,286047002.4,P
1558633395.5,286046999.7,N
1558633415.3,286047002.8,N
1558633435.2,286046999.9,N
1558633455.9,286046999.8,N
1558633475.7,286047004.0,Y
1558633495.6,286046999.7,P
1558633515.4,286047002.0,N
1558633535.3,286047003.6,P
1558633555.1,286047005.7,Y
1558633556.0,286047005.7,P
1558633575.8,286047000.2,N
1558633595.7,286046999.1,N
1558633615.5,286046994.9,N
1558633635.3,286046999.0,N
1558633655.2,286047000.6,N
1558633675.0,286047004.1,N
1558633675.9,286047004.1,N
1558633695.8,286047004.1,N
1558633715.6,286047004.8,N
1558633735.4,286047004.8,N
1558633755.3,286047008.3,N
1558633775.1,286047007.9,N
1558633795.9,286047008.8,N
1558633815.7,286047008.6,N
1558633835.5,286047012.4,Y
1558633855.4,286047005.0,P
1558633875.2,286047000.3,N
1558633895.0,286047000.7,N
1558633895.9,286047000.7,N
1558633915.8,286047000.6,N
1558633935.6,286047007.4,Y
1558633955.5,286047007.0,P
1558633975.3,286047007.3,N
1558633995.1,286047006.7,N
1558634015.9,286047006.4,N
1558634035.7,286047004.6,N
1558634055.6,286047007.0,Y
1558634075.4,286047002.6,P
1558634095.2,286047002.8,N
1558634115.1,286047002.8,N
1558634116.0,286047002.8,N
1558634135.8,286047002.7,N
1558634155.6,286047002.6,N
1558634175.5,286047002.0,N
1558634195.3,286047001.6,N
1558634215.2,286047002.1,N
1558634235.9,286047002.1,N
1558634255.7,286047002.7,N
1558634275.6,286047003.9,Y
1558634295.4,286046999.8,P
1558634315.2,286047001.6,N
1558634335.1,286047004.3,P
1558634336.0,286047004.3,N
1558634355.8,286047001.5,N
1558634375.7,286047002.6,N
1558634395.5,286047002.0,N
